Vertical_Velocity
-1 -1 1 -1 -0 -3 -5 -8 -13 -7 14 10 -0 0 -2 -1 3 1 4 4 -2 -1 -4 -0 -1 -3 -3 -2 -1 -0 -3 -6 -7 -6 -5 -0 7 -8
1 -1 0 0 -1 -2 -2 -4 -9 -12 -10 -7 -1 -9 -7 -1 1 -0 2 -2 4 1 -1 -0 -1 -1 -2 -5 1 -1 1 -4 -8 -7 -3 -1 -10 -5
-0 0 -2 1 0 -1 -2 -4 -5 -11 -15 21 -8 -7 -1 -9 2 0 -0 5 -2 3 -2 -2 1 1 -1 -2 -2 1 2 -7 -3 -5 -5 -1 1 -10
0 -2 -1 -2 2 -1 -3 -4 -6 -8 -17 -12 -7 -0 -8 -5 -0 -2 4 -4 -4 1 4 2 2 1 2 -1 -3 2 3 -5 -2 -6 -5 -3 2 14
-1 -1 1 -0 -1 0 -4 -5 -6 -6 -5 -12 -7 -9 -8 -4 0 -1 5 -1 -3 -5 -5 -1 -5 -2 -0 0 -0 1 1 -3 -4 -4 -2 -2 -6 5
0 -1 -1 0 -2 -1 -1 -2 -5 -2 -6 -2 -4 -3 -7 -2 -2 -16 9 -1 -3 -2 -6 0 -5 -2 -1 1 -2 -2 3 -0 -5 2 4 -5 1 10
1 0 -3 -2 -3 -2 -1 -2 -2 -2 -5 -3 -4 -1 1 -0 -4 2 -11 -4 5 -10 1 2 -3 -4 -2 -0 2 5 5 -2 -3 2 1 1 2 -2
-0 0 -4 -3 0 -2 -5 -9 -11 -11 -3 -4 -1 -5 3 -4 -1 -2 -8 -7 -1 -5 1 14 -8 -2 1 0 0 2 -0 -1 1 -0 2 2 5 -2
2 -2 -3 -4 -0 -0 -0 -2 -6 -8 -9 -12 -6 -6 -1 5 -5 -4 -1 0 3 -6 -6 7 -5 -3 -1 -3 -1 -2 1 -1 2 2 -0 -5 5 7
-2 -1 -3 -3 -2 -2 -1 -2 -5 -1 2 -7 -13 -2 5 -2 -2 -3 -3 2 1 -3 -8 2 -3 -3 -2 -0 1 -1 2 2 3 -2 1 -4 4 9
-1 -0 1 -2 -3 -3 -2 -2 -1 -2 -3 -4 -7 -7 -1 -8 -7 -4 -3 -2 3 -5 -1 -2 -5 -1 -1 0 -2 1 4 4 4 6 10 -2 5 8
-2 -4 -2 -2 -4 -2 -2 -4 -1 -3 -3 1 4 -1 -5 -5 -2 -4 -0 -1 -6 4 -5 -2 -4 -2 -0 -1 -3 1 3 1 -2 -0 -3 11 9 2
-3 -5 -5 -2 -2 -5 -9 -3 -4 -4 -4 -4 5 -2 -1 -5 -1 0 0 -3 -3 -7 -1 -3 -3 -3 -3 1 -1 -1 4 2 1 3 5 -0 -2 -4
-1 -2 -3 -1 -2 -5 -6 -2 -4 -4 -7 -5 -3 3 -5 0 -3 -1 0 -6 -2 -3 -0 -4 -5 -3 0 -2 -1 -2 1 5 2 -2 5 0 12 11
-2 -2 -2 -2 -3 -4 -5 -4 -1 -6 -6 -6 1 -6 -3 -0 -3 -6 -1 -4 0 -1 2 -2 -6 -4 -1 -2 -1 1 -2 1 -0 9 6 5 30 12
-1 -0 1 -3 -2 -2 -5 -6 -3 -8 -1 -5 -7 -9 -3 -0 -3 -3 -1 -1 -1 0 3 -2 -6 -3 -0 -1 2 -1 -2 2 3 5 9 5 6 3
-1 -2 -3 -5 -2 -2 -3 -4 -4 -8 -4 -4 -2 -10 -3 -3 -3 -3 -3 -1 1 0 0 -1 -2 -4 -2 1 2 -2 3 -2 3 4 5 -1 1 9
-1 -3 -0 -3 2 -4 1 3 0 -1 -7 -3 4 -7 -2 -3 -4 -4 -3 -3 -2 1 1 -0 -3 -2 -3 -3 -1 1 -5 6 0 6 3 0 5 13
-4 -0 -1 -1 -6 -3 -5 0 -7 2 -8 -9 -1 -2 -2 -2 -4 -5 -3 -3 -2 -1 2 -3 -1 -2 -3 -3 -4 -1 -3 -0 -1 0 6 1 7 7
-1 -0 -2 -2 -8 -5 -1 2 -2 0 -4 -5 -5 -1 -3 -1 -5 -4 -4 -4 -3 -2 2 1 -1 -0 1 -1 0 -1 1 -7 -1 -2 5 8 5 10
1 -1 -4 -3 -6 -5 -5 -1 -5 0 3 -6 -3 -0 -4 -2 -3 -4 -4 -4 -3 -2 1 1 -1 -1 -0 1 -1 1 1 7 -1 -3 0 1 1 3
-1 -0 -1 -3 -7 -3 1 -2 4 -12 7 -3 -5 -1 -4 -2 -2 -3 -4 -2 -3 -2 -0 -0 0 -2 -1 2 3 2 0 3 4 -1 -2 -3 1 1
2 -1 1 0 -5 -7 -6 3 -8 3 -4 1 -5 -2 -2 -4 -1 -2 -3 -3 1 -1 1 -1 -1 -3 -4 3 1 5 2 1 2 6 2 -1 1 -0
Height
5738 5734 5728 5721 5715 5708 5700 5693 5687 5683 5677 5661 5648 5635 5618 5601 5582 5563 5548 5537 5528 5519 5512 5507 5502 5497 5495 5493 5491 5488 5486 5485 5483 5482 5483 5483 5492 5514
5727 5722 5716 5709 5702 5694 5685 5678 5670 5664 5660 5643 5634 5618 5603 5584 5563 5543 5530 5520 5512 5502 5493 5487 5482 5478 5477 5475 5475 5472 5471 5469 5468 5467 5469 5471 5478 5496
5716 5710 5703 5697 5689 5679 5671 5664 5655 5646 5641 5634 5612 5599 5582 5563 5546 5529 5517 5505 5496 5485 5475 5468 5462 5458 5457 5456 5456 5456 5455 5454 5455 5454 5456 5460 5465 5481
5703 5698 5692 5684 5675 5666 5657 5648 5639 5628 5620 5614 5599 5580 5559 5542 5528 5517 5504 5490 5482 5473 5462 5451 5444 5438 5435 5434 5436 5438 5439 5439 5442 5442 5444 5449 5456 5468
5691 5685 5679 5671 5662 5653 5645 5636 5625 5614 5602 5589 5579 5558 5541 5525 5516 5503 5490 5478 5467 5456 5444 5434 5425 5418 5412 5411 5413 5418 5424 5426 5430 5431 5434 5439 5447 5459
5679 5673 5667 5659 5650 5641 5632 5623 5613 5600 5587 5571 5556 5541 5524 5512 5499 5490 5482 5464 5456 5444 5433 5419 5410 5403 5397 5394 5397 5403 5410 5415 5419 5422 5425 5431 5440 5453
5667 5660 5654 5647 5638 5629 5620 5610 5600 5587 5574 5558 5541 5527 5512 5501 5489 5477 5466 5458 5446 5433 5425 5411 5404 5396 5390 5388 5391 5397 5402 5405 5409 5412 5418 5424 5433 5445
5654 5648 5641 5634 5625 5615 5606 5595 5584 5574 5559 5545 5530 5517 5504 5492 5480 5467 5458 5447 5441 5426 5418 5408 5398 5392 5388 5387 5389 5393 5396 5398 5401 5405 5412 5419 5428 5441
5642 5635 5628 5621 5613 5604 5594 5582 5569 5554 5540 5530 5518 5504 5496 5484 5474 5463 5452 5440 5428 5417 5409 5404 5396 5391 5388 5388 5389 5390 5390 5391 5394 5399 5408 5416 5426 5439
5630 5624 5616 5609 5602 5593 5583 5570 5557 5541 5527 5517 5506 5496 5485 5475 5465 5456 5447 5434 5421 5410 5402 5399 5395 5391 5389 5388 5387 5386 5386 5387 5391 5396 5404 5414 5424 5437
5618 5611 5604 5597 5589 5581 5573 5561 5548 5532 5517 5505 5494 5485 5476 5467 5458 5451 5440 5428 5417 5406 5399 5397 5394 5392 5389 5386 5384 5383 5383 5384 5389 5394 5402 5412 5421 5434
5604 5598 5592 5585 5577 5570 5561 5551 5539 5526 5514 5502 5491 5479 5469 5461 5452 5445 5436 5424 5414 5406 5399 5397 5394 5392 5390 5385 5384 5383 5383 5385 5390 5396 5403 5413 5423 5434
5591 5584 5578 5572 5564 5556 5548 5539 5528 5517 5506 5495 5485 5475 5465 5456 5449 5442 5433 5422 5414 5407 5402 5398 5396 5393 5389 5387 5386 5386 5386 5388 5393 5399 5404 5413 5425 5438
5579 5573 5565 5559 5551 5544 5536 5526 5515 5505 5496 5487 5477 5468 5460 5453 5446 5440 5431 5421 5416 5411 5406 5402 5398 5395 5392 5391 5391 5391 5391 5392 5396 5402 5411 5418 5429 5443
5567 5560 5553 5547 5541 5533 5523 5513 5505 5497 5488 5480 5471 5462 5455 5450 5444 5437 5429 5421 5417 5414 5409 5405 5402 5399 5398 5396 5396 5396 5396 5397 5401 5407 5415 5422 5434 5446
5553 5547 5542 5537 5530 5521 5512 5504 5497 5489 5482 5473 5465 5457 5451 5446 5440 5434 5428 5422 5418 5415 5412 5409 5406 5404 5404 5402 5401 5401 5402 5403 5405 5412 5420 5428 5436 5445
5540 5535 5531 5526 5519 5511 5502 5495 5489 5482 5475 5466 5458 5452 5447 5442 5437 5431 5426 5421 5418 5415 5412 5410 5409 5408 5408 5407 5407 5406 5407 5409 5412 5419 5425 5432 5441 5449
5529 5525 5521 5515 5509 5502 5496 5489 5482 5475 5470 5461 5453 5446 5443 5439 5434 5429 5424 5419 5417 5414 5411 5408 5407 5407 5408 5409 5410 5412 5411 5412 5417 5421 5427 5430 5437 5446
5518 5513 5508 5502 5498 5491 5486 5481 5476 5470 5463 5457 5449 5443 5439 5435 5431 5426 5422 5419 5416 5414 5411 5408 5406 5406 5407 5409 5411 5415 5418 5421 5422 5425 5428 5433 5438 5444
5504 5500 5495 5491 5486 5481 5477 5473 5467 5462 5457 5452 5444 5439 5436 5432 5428 5425 5421 5418 5415 5414 5412 5409 5407 5405 5406 5408 5411 5414 5419 5423 5427 5430 5433 5438 5442 5448
5491 5487 5483 5478 5473 5469 5466 5463 5459 5456 5450 5446 5440 5435 5432 5429 5425 5423 5420 5417 5415 5413 5412 5410 5408 5406 5407 5409 5411 5413 5418 5423 5428 5433 5436 5440 5445 5450
5477 5473 5468 5464 5461 5459 5456 5453 5448 5447 5443 5438 5433 5430 5427 5425 5422 5420 5419 5417 5415 5413 5412 5410 5409 5409 5409 5410 5412 5414 5417 5423 5427 5431 5437 5442 5447 5451
5462 5458 5454 5451 5448 5446 5444 5442 5439 5435 5433 5430 5426 5423 5422 5420 5418 5417 5416 5416 5415 5414 5412 5411 5409 5409 5410 5412 5413 5416 5418 5422 5427 5431 5436 5441 5446 5451